Saranac Lake, NY

4:36 PM EDT on September 20, 2017 (GMT -0400)
Adirondack Regional

Weather History for KSLK - March, 2015

Change the Weather History Date:

Wednesday, March 18, 2015

  Actual Average Record
Temperature  
Mean Temperature 6 °F 25 °F  
Max Temperature 18 °F 37 °F 76 °F (2012)
Min Temperature -7 °F 13 °F -18 °F (2014)
Degree Days  
Heating Degree Days 59 40  
Month to date heating degree days 797 781  
Since 1 July heating degree days 7580 7486  
Cooling Degree Days 0 0  
Month to date cooling degree days 0 0  
Year to date cooling degree days 0 0  
Moisture  
Dew Point -3 °F    
Average Humidity 59    
Maximum Humidity 79    
Minimum Humidity 39    
Precipitation  
Precipitation T in 0.09 in 0.88 in (1989)
Month to date precipitation 0.34 1.16  
Year to date precipitation 1.21 4.90  
Sea Level Pressure  
Sea Level Pressure 30.02 in    
Wind  
Wind Speed 8 mph (NW)    
Max Wind Speed 18 mph    
Max Gust Speed 30 mph    
Visibility 10 miles    
Events      
T = Trace of Precipitation, MM = Missing Value Source: NWS Daily Summary

Daily Weather History Graph

Daily Weather History Graph

Search for Another Location

Airport or City:

Trip Planner

Search our weather history database for the weather conditions in past years. The results will help you decide how hot, cold, wet, or windy it might be!

Date:

Astronomy

Mar. 18, 2015 Rise Set
Actual Time 7:04 AM EDT 7:06 PM EDT
Civil Twilight 6:35 AM EDT 7:35 PM EDT
Nautical Twilight 6:01 AM EDT 8:09 PM EDT
Astronomical Twilight 5:26 AM EDT 8:44 PM EDT
Moon 5:49 AM EDT (3/18) 5:15 PM EDT (3/18)
Length of Visible Light 13h 00m
Length of Day
12h 02m
Waning Crescent, 5% of the Moon is Illuminated
Mar 18
Waning Crescent
Mar 20
New
Mar 27
First Quarter
Apr 4
Full
Apr 11
Last Quarter

Hourly Weather History & Observations

Time (EDT) Temp. Windchill Dew Point Humidity Pressure Visibility Wind Dir Wind Speed Gust Speed Precip Events Conditions
12:51 AM 15.1 °F 6.4 °F 1.0 °F 54% 29.89 in 10.0 mi Variable 5.8 mph 21.9 mph N/A   Clear
1:51 AM 14.0 °F 3.9 °F 1.0 °F 56% 29.90 in 10.0 mi NW 6.9 mph - N/A   Scattered Clouds
2:51 AM 14.0 °F 3.9 °F -0.9 °F 52% 29.90 in 10.0 mi Variable 6.9 mph - N/A   Clear
3:51 AM 12.9 °F -0.2 °F -0.0 °F 56% 29.91 in 10.0 mi WNW 10.4 mph 19.6 mph N/A   Mostly Cloudy
4:51 AM 12.0 °F 1.5 °F -0.0 °F 59% 29.92 in 10.0 mi Variable 6.9 mph - 0.00 in   Scattered Clouds
5:51 AM 10.9 °F -0.8 °F -0.9 °F 59% 29.94 in 10.0 mi NW 8.1 mph 20.7 mph N/A   Partly Cloudy
6:51 AM 9.0 °F - -2.0 °F 61% 29.96 in 10.0 mi North - - N/A   Partly Cloudy
7:51 AM 8.1 °F -6.2 °F -2.9 °F 61% 30.00 in 10.0 mi WNW 10.4 mph 21.9 mph N/A   Partly Cloudy
8:51 AM 9.0 °F -5.1 °F -4.0 °F 56% 30.01 in 10.0 mi NW 10.4 mph 20.7 mph N/A   Scattered Clouds
9:51 AM 10.0 °F -1.9 °F -5.1 °F 51% 30.03 in 10.0 mi NW 8.1 mph 23.0 mph N/A   Scattered Clouds
10:51 AM 10.9 °F -4.7 °F -5.1 °F 49% 30.03 in 10.0 mi NW 13.8 mph 25.3 mph N/A   Mostly Cloudy
11:51 AM 12.0 °F -2.0 °F -6.0 °F 44% 30.03 in 10.0 mi WNW 11.5 mph 21.9 mph N/A   Mostly Cloudy
12:51 PM 12.9 °F 3.8 °F -5.1 °F 45% 30.04 in 10.0 mi Variable 5.8 mph - N/A   Mostly Cloudy
1:51 PM 15.1 °F -0.6 °F -6.0 °F 39% 30.04 in 10.0 mi West 16.1 mph 25.3 mph N/A   Overcast
2:51 PM 15.1 °F 1.1 °F -6.0 °F 39% 30.04 in 10.0 mi NNW 12.7 mph 23.0 mph N/A   Overcast
3:51 PM 16.0 °F 1.7 °F -5.1 °F 39% 30.04 in 10.0 mi NW 13.8 mph 25.3 mph N/A   Overcast
4:51 PM 17.1 °F 3.0 °F -4.0 °F 39% 30.05 in 10.0 mi WNW 13.8 mph 19.6 mph 0.00 in   Overcast
5:51 PM 17.1 °F 8.7 °F -2.9 °F 41% 30.06 in 10.0 mi Variable 5.8 mph 20.7 mph N/A   Mostly Cloudy
6:51 PM 16.0 °F 5.3 °F -5.1 °F 39% 30.08 in 10.0 mi NNW 8.1 mph - N/A   Clear
7:51 PM 14.0 °F 3.9 °F -4.0 °F 45% 30.10 in 10.0 mi Variable 6.9 mph - N/A   Clear
8:51 PM 12.0 °F - -2.9 °F 51% 30.12 in 10.0 mi Calm Calm - N/A   Clear
9:51 PM 6.1 °F - -2.9 °F 67% 30.14 in 10.0 mi Calm Calm - N/A   Clear
10:51 PM 1.0 °F - -4.0 °F 79% 30.15 in 10.0 mi Calm Calm - N/A   Clear
11:51 PM -2.9 °F - -7.1 °F 82% 30.16 in - Calm Calm - N/A   Unknown